Regional Weather Roundup
Issued by NWS Sterling, VA

Home | Current Version | Previous Version | Text Only | Print | Product List | Glossary Off
Versions: 1 2 3 4 5 6 7 8 9 10 11 12 13 14 15 16 17 18 19 20 21 22 23 24 25 26 27

000
ASUS41 KLWX 210511
RWRLWX

REGIONAL WEATHER ROUNDUP
NATIONAL WEATHER SERVICE BALTIMORE MD/WASHINGTON DC
100 AM EDT THU SEP 21 2017

Note: "FAIR" indicates few or no clouds below 12,000 feet
with no significant weather and/or obstructions to visibility.
 TC=TEMPERATURE CELSIUS

 * =Non NWS site. Station does not report precipitation (e.g. rain,
    snow, etc.), thunder, or fog.

DCZ001-MDZ009-015-VAZ040>042-051-053>054-210600-
WASHINGTON METRO

CITY           SKY/WX    TMP DP  RH WIND       PRES   REMARKS
WASHINGTON NAT CLEAR     73  67  81 CALM      30.00R
DULLES         CLEAR     62  62 100 CALM      30.01R
ANDREWS AFB    CLEAR     65  61  87 CALM      29.99R
FT BELVOIR     CLEAR     64  63  95 CALM      29.99S
QUANTICO       CLEAR     68  66  93 NW7       30.00S
COLLEGE PARK*  CLEAR     64  63  96 CALM      29.99S
LEESBURG*      CLEAR     63  63 100 W3        30.03R
MANASSAS*      CLEAR     60  60 100 CALM      30.01S
GAITHERSBURG*  CLEAR     62  61  96 CALM      30.02S

$$

MDZ006>007-011-014-210600-
BALTIMORE METRO

CITY           SKY/WX    TMP DP  RH WIND       PRES   REMARKS
BWI AIRPORT    CLEAR     65  63  93 NW6       29.98S
MD SCIENCE CTR   N/A     77  62  59 MISG      29.99R
MARTIN STATE   CLEAR     68  64  88 CALM      29.99S
ANNAPOLIS      CLEAR     73  71  93 NW3       29.98R
FORT MEADE*    CLEAR     61  61 100 CALM      30.01S

$$

MDZ012-015-019>023-210600-
MARYLAND EASTERN SHORE

CITY           SKY/WX    TMP DP  RH WIND       PRES   REMARKS
OCEAN CITY     CLEAR    N/A N/A N/A CALM      29.97S
SALISBURY      CLEAR     68  68 100 CALM      29.97R
CAMBRIDGE*     CLEAR     66  66 100 CALM      29.97S
EASTON*        CLEAR    N/A N/A N/A CALM      30.01S

$$

MDZ017>025-210600-
SOUTHERN MARYLAND

CITY           SKY/WX    TMP DP  RH WIND       PRES   REMARKS
PATUXENT RIVER CLEAR     64  63  96 W5        29.97S
ST INIGOES     CLEAR     64  62  93 CALM      29.97S
LEONARDTOWN*   CLEAR     64  61  88 CALM      30.00R

$$

MDZ003>005-210600-
NORTH CENTRAL MARYLAND

CITY           SKY/WX    TMP DP  RH WIND       PRES   REMARKS
FREDERICK*     CLEAR     63  63 100 CALM      30.04S FOG
HAGERSTOWN APT CLEAR     66  59  78 CALM      30.02S
WESTMINSTER*   CLEAR     66  63  88 CALM      30.03R

$$

MDZ501>502-210600-
WESTERN MARYLAND

CITY           SKY/WX    TMP DP  RH WIND       PRES   REMARKS
OAKLAND*       CLEAR     63  61  94 CALM      30.12S
CUMBERLAND*    CLEAR     63  61  94 CALM      30.09S

$$

VAZ025>031-210600-
SHENANDOAH VALLEY

CITY           SKY/WX    TMP DP  RH WIND       PRES   REMARKS
WINCHESTER*    CLEAR     59  57  94 CALM      30.04R
FRONT ROYAL*   CLEAR     64  59  82 S5        30.03S
LURAY*         CLEAR     64  63  94 SE3       30.05S
NEW MARKET*    CLEAR     62  60  96 CALM      30.05S
STAUNTON*      CLEAR     63  62  95 CALM      30.09S
WAYNESBORO*    CLOUDY    63  63 100 CALM      30.08S

$$

WVZ021-048>050-054>055-210600-
EASTERN WEST VIRGINIA PANHANDLE

CITY           SKY/WX    TMP DP  RH WIND       PRES   REMARKS
MARTINSBURG    CLEAR     59  57  93 SE5       30.02R
PETERSBURG*    CLEAR     64  63  97 CALM      30.07S FOG

$$

VAZ036>039-050-210600-
CENTRAL FOOTHILLS

CITY           SKY/WX    TMP DP  RH WIND       PRES   REMARKS
CHARLOTTESVILL CLEAR     71  67  87 CALM      30.02S
CULPEPER*      CLEAR     65  64  97 CALM      30.03R
ORANGE*        CLEAR     64  63  94 CALM      30.01S
GORDONSVILLE*  CLEAR     65  65 100 CALM      30.01F FOG
WARRENTON*     CLEAR     60  58  91 CALM      30.01R

$$

VAZ055>057-210600-
NORTH AND CENTRAL PIEDMONT

CITY           SKY/WX    TMP DP  RH WIND       PRES   REMARKS
FREDERICKSBRG* CLEAR     64  64 100 CALM      29.99F
STAFFORD*      CLEAR     61  61 100 CALM      30.04S

$$

NCZ024-NYZ072-PAZ021-071-VAZ022-071-210600-
OTHER REGIONAL OBSERVATIONS

CITY           SKY/WX    TMP DP  RH WIND       PRES   REMARKS
NEW YORK CITY  CLOUDY    73  63  70 CALM      29.97S
PHILADELPHIA   PTCLDY    73  64  73 N3        29.97R
PITTSBURGH     PTCLDY    67  64  90 CALM      30.05S
ROANOKE        CLEAR     67  66  97 CALM      30.08S
RICHMOND       CLEAR     66  64  93 CALM      29.99S
RALEIGH        PTCLDY    70  68  93 CALM      30.01S

$$

ANZ530>537-210600-
MARINE OBSERVATIONS

STATION/POSITION TIME  TEMP    WIND        PRES
                       AIR SEA DIR/SP/G
                 (UTC) (F)     (DEG/KT/KT) (MB)
THOMAS PT LIGHT  0500   74 76  350/  4/  4   N/A
BALT KEY BRIDGE  0442   75     280/  3/  3 1015.2R
COVE POINT       0442   75     320/  5/  6 1015.5S
LEWISETTA        0442   72 76  270/  4/  5 1014.9S
SOLOMONS ISLAND  0442   72 76  310/  4/  5 1014.6R
PINEY POINT      0442          330/  6/  7   N/A

$$





USA.gov is the U.S. government's official web portal to all federal, state and local government web resources and services.